Location: Madingley
(52.2167°N, 0.0500°E)
Time: 12:01:31
(UTC+00:00)

Cosmos 2082 Rocket - Pass Details

Date: 15 May 2026
Orbit: 832 x 852 km, 71.0° (Epoch: 5 June)

Event Time Altitude Azimuth Distance (km) Brightness Sun altitude
Rises 20:38:02 0° 212° (SSW) 3,410 5.2 -6.8°
Reaches altitude 10° 20:40:29 10° 214° (SSW) 2,478 4.5 -7.1°
Maximum altitude 20:46:11 81° 301° (WNW) 870 2.4 -7.7°
Drops below altitude 10° 20:51:56 10° 30° (NNE) 2,487 4.9 -8.3°
Sets 20:54:23 0° 31° (NNE) 3,424 5.6 -8.5°
